ETH713 LSGG-LIML

Flight info

Callsign ETH713
Flight time N/A
Altitude 19000
Route ROCCA T345 LURAG M135 ASTIG
Aircraft B77L/H-SDE1E2E3FGHIJ2J3J4J5M1RWXY/LB1D1

Departure

Time N/A
Airport Geneva International Airport (LSGG)

Arrival

Time 2026-05-05 21:22
Airport Milano Linate Airport (LIML)
Time Latitude Longitude Altitude Speed Heading
2026-05-05 21:02 44.85987 8.38064 16979 ft 293 kts 199°
2026-05-05 21:02 44.84136 8.36909 16977 ft 288 kts 211°
2026-05-05 21:02 44.82289 8.35887 16973 ft 289 kts 191°
2026-05-05 21:03 44.80264 8.36094 16976 ft 301 kts 167°
2026-05-05 21:03 44.78408 8.37563 16959 ft 316 kts 144°
2026-05-05 21:03 44.77067 8.40084 16972 ft 332 kts 120°
2026-05-05 21:03 44.76474 8.43270 16981 ft 344 kts 100°
2026-05-05 21:04 44.76367 8.46662 16980 ft 349 kts 95°
2026-05-05 21:04 44.76375 8.50088 16973 ft 352 kts 94°
2026-05-05 21:04 44.76405 8.53492 16970 ft 353 kts 94°
2026-05-05 21:04 44.76442 8.56941 16974 ft 353 kts 94°
2026-05-05 21:05 44.76483 8.60394 16972 ft 353 kts 93°
2026-05-05 21:05 44.76527 8.63845 16967 ft 352 kts 93°
2026-05-05 21:05 44.76572 8.67279 16968 ft 351 kts 93°
2026-05-05 21:05 44.76618 8.70706 16972 ft 350 kts 93°
2026-05-05 21:06 44.76665 8.74126 16969 ft 349 kts 93°
2026-05-05 21:06 44.76712 8.77539 16957 ft 348 kts 93°
2026-05-05 21:06 44.76760 8.80933 16888 ft 345 kts 93°
2026-05-05 21:06 44.76807 8.84302 16614 ft 345 kts 93°
2026-05-05 21:07 44.76850 8.87681 16330 ft 345 kts 93°
2026-05-05 21:07 44.76887 8.91052 16103 ft 344 kts 93°
2026-05-05 21:07 44.76921 8.94404 15891 ft 341 kts 93°
2026-05-05 21:07 44.76950 8.97723 15674 ft 340 kts 93°
2026-05-05 21:08 44.76973 9.01060 15396 ft 339 kts 93°
2026-05-05 21:08 44.76987 9.04370 15164 ft 338 kts 93°
2026-05-05 21:08 44.77000 9.07665 15047 ft 334 kts 93°
2026-05-05 21:08 44.77011 9.10923 15000 ft 333 kts 93°
2026-05-05 21:09 44.77019 9.14184 14963 ft 334 kts 93°
2026-05-05 21:09 44.77027 9.17466 14982 ft 337 kts 93°
2026-05-05 21:09 44.77036 9.20776 14978 ft 340 kts 93°
2026-05-05 21:09 44.77041 9.24119 14968 ft 338 kts 94°
2026-05-05 21:10 44.77042 9.27372 14964 ft 327 kts 94°
2026-05-05 21:10 44.77051 9.30520 14945 ft 316 kts 93°
2026-05-05 21:10 44.77068 9.33616 14975 ft 318 kts 93°
2026-05-05 21:10 44.77085 9.36741 14976 ft 319 kts 93°
2026-05-05 21:11 44.77100 9.39846 14965 ft 316 kts 93°
2026-05-05 21:11 44.77115 9.42928 14923 ft 314 kts 93°
2026-05-05 21:11 44.77167 9.45987 14695 ft 310 kts 85°
2026-05-05 21:11 44.77913 9.48786 14243 ft 315 kts 52°
2026-05-05 21:12 44.79562 9.50810 13811 ft 310 kts 24°
2026-05-05 21:12 44.81514 9.51623 13460 ft 299 kts 359°
2026-05-05 21:12 44.83546 9.51429 13102 ft 290 kts 346°
2026-05-05 21:12 44.85518 9.50932 12712 ft 288 kts 344°
2026-05-05 21:13 44.87480 9.50376 12350 ft 286 kts 344°
2026-05-05 21:13 44.89424 9.49812 11990 ft 284 kts 343°
2026-05-05 21:13 44.91355 9.49242 11643 ft 283 kts 343°
2026-05-05 21:13 44.93277 9.48662 11285 ft 282 kts 343°
2026-05-05 21:14 44.95185 9.48076 10946 ft 280 kts 343°
2026-05-05 21:14 44.97080 9.47486 10579 ft 278 kts 343°
2026-05-05 21:14 44.98964 9.46890 10252 ft 276 kts 343°
2026-05-05 21:14 45.00834 9.46279 9922 ft 274 kts 343°
2026-05-05 21:15 45.02062 9.45867 9674 ft 273 kts 343°
2026-05-05 21:15 45.04503 9.45041 9171 ft 271 kts 343°
2026-05-05 21:15 45.06334 9.44417 8812 ft 270 kts 343°
2026-05-05 21:15 45.08159 9.43797 8431 ft 269 kts 343°
2026-05-05 21:16 45.09973 9.43182 8063 ft 267 kts 343°
2026-05-05 21:16 45.11775 9.42572 7706 ft 266 kts 343°
2026-05-05 21:16 45.12990 9.42161 7453 ft 265 kts 343°
2026-05-05 21:16 45.14779 9.41559 7102 ft 264 kts 343°
2026-05-05 21:17 45.16561 9.40959 6752 ft 262 kts 343°
2026-05-05 21:17 45.18332 9.40364 6402 ft 261 kts 343°
2026-05-05 21:17 45.20093 9.39765 6034 ft 260 kts 344°
2026-05-05 21:17 45.21830 9.39126 5646 ft 254 kts 339°
2026-05-05 21:18 45.23443 9.38140 5079 ft 252 kts 339°
2026-05-05 21:18 45.25146 9.37480 4499 ft 256 kts 342°
2026-05-05 21:18 45.26786 9.36547 3970 ft 250 kts 326°
2026-05-05 21:18 45.28103 9.34999 3358 ft 246 kts 315°
2026-05-05 21:19 45.29283 9.33303 3158 ft 235 kts 314°
2026-05-05 21:19 45.30411 9.31646 2988 ft 228 kts 314°
2026-05-05 21:19 45.31480 9.30099 2973 ft 212 kts 320°
2026-05-05 21:19 45.32812 9.29217 2995 ft 214 kts 350°
2026-05-05 21:20 45.34280 9.28864 2913 ft 214 kts 352°
2026-05-05 21:20 45.35736 9.28627 2561 ft 207 kts 357°
2026-05-05 21:20 45.37104 9.28493 2054 ft 194 kts 358°
2026-05-05 21:20 45.38452 9.28351 1370 ft 193 kts 358°
2026-05-05 21:21 45.39746 9.28249 955 ft 174 kts 359°
2026-05-05 21:21 45.40843 9.28151 916 ft 149 kts 356°
2026-05-05 21:21 45.41837 9.27993 803 ft 146 kts 356°
2026-05-05 21:21 45.42858 9.27881 528 ft 145 kts 358°
2026-05-05 21:22 45.43832 9.27777 368 ft 135 kts 356°
2026-05-05 21:22 45.44655 9.27695 369 ft 93 kts 355°
2026-05-05 21:22 45.45077 9.27651 366 ft 39 kts 356°
2026-05-05 21:22 45.45299 9.27657 366 ft 26 kts 19°
2026-05-05 21:23 45.45392 9.27721 368 ft 5 kts 28°
2026-05-05 21:23 45.45423 9.27748 369 ft 7 kts 35°
2026-05-05 21:23 45.45457 9.27799 369 ft 7 kts 40°
2026-05-05 21:23 45.45510 9.27814 372 ft 9 kts
2026-05-05 21:24 45.45573 9.27816 367 ft 9 kts
2026-05-05 21:24 45.45630 9.27818 370 ft 0 kts
2026-05-05 21:24 45.45635 9.27818 371 ft 2 kts
2026-05-05 21:24 45.45693 9.27819 369 ft 13 kts
2026-05-05 21:25 45.45744 9.27818 368 ft 3 kts
2026-05-05 21:25 45.45769 9.27826 369 ft 4 kts 37°
2026-05-05 21:25 45.45775 9.27865 369 ft 2 kts 90°
2026-05-05 21:25 45.45774 9.27886 370 ft 2 kts 89°
2026-05-05 21:26 45.45773 9.27888 369 ft 0 kts 85°